カタログに戻る

STARLINK-34623

運用中通信VLEO
NORAD 65018·PAYLOAD·🇺🇸 United States

打ち上げ Jul 30, 2025 から Cape Canaveral Space Force Station

Loading…

次のパス (今後24時間)

TLE

最新Source: CelesTrak SupGP

元期: Sep 15, 2026, 02:50 UTC

1 65018C 25161D   26258.11854167  .00051532  00000+0  15231-2 0  2588
2 65018  53.1574 132.7560 0001243  84.0778 305.3243 15.34352036    18

AllMySatでSTARLINK-34623をリアルタイム追跡

Download on the App Store